1998-067NR

Last updated on Sun May 13 2018 00:15:04 GMT+0000 (Coordinated Universal Time)

1 43468U 98067NR 18132.57580270 .00055982 00000-0 82146-3 0 9997 2 43468 51.6390 196.2295 0001378 0.9694 359.0887 15.54965675100141

Satellite not in orbit

1998-067NR